Regional Weather Roundup
Issued by NWS State College, PA

Home | Current Version | Previous Version | Graphics & Text | Print | Product List | Glossary Off
Versions: 1 2 3 4 5 6 7 8 9 10 11 12 13 14 15 16 17 18 19 20 21 22 23 24 25 26 27 28 29 30 31 32 33 34 35 36 37 38 39 40 41 42 43 44 45 46 47 48 49 50

000
ASUS41 KCTP 301503
RWRCTP

REGIONAL WEATHER ROUNDUP
NATIONAL WEATHER SERVICE STATE COLLEGE PA
1100 AM EDT SAT APR 30 2016

Note: "fair" indicates few or no clouds below 12,000 feet with no
significant weather and/or obstructions to visibility.

* = STATION THAT DOES NOT REPORT PRECIPITATION /E.G. RAIN...SNOW...ETC/
    THUNDER OR FOG.

PAZ002>004-007>009-013>016-020>023-029>032-301600-
WESTERN PENNSYLVANIA

CITY           SKY/WX    TMP DP  RH WIND       PRES   REMARKS
ERIE           CLOUDY    51  43  74 NE9       30.15F
MEADVILLE      CLOUDY    49  43  80 VRB6      30.13S
FRANKLIN*      CLOUDY    50  41  71 E8        30.16R
NEW CASTLE     CLOUDY    55  45  68 SE7       30.12F
BEAVER COUNTY  PTSUNNY   55  46  71 SE5       30.11F
BUTLER*        CLOUDY    54  45  71 E10       30.14F
PITTSBURGH INT CLOUDY    57  44  62 VRB7      30.10F
PITTSBURGH     MOSUNNY   58  46  64 MISG      30.10S
INDIANA*       CLOUDY    54  46  76 E9        30.15F
LATROBE        MOSUNNY   59  48  67 E7        30.11F
WASHINGTON CO* MOSUNNY   55  46  71 CALM      30.11F
$$

PAZ004>006-010>012-017>019-024>028-033>037-041-042-045-046-049>053-301600-
CENTRAL PENNSYLVANIA

CITY           SKY/WX    TMP DP  RH WIND       PRES   REMARKS
BRADFORD       CLOUDY    44  38  79 SE8       30.17R
DUBOIS         CLOUDY    48  41  76 SE9       30.14S
CLEARFIELD     CLOUDY    49  42  77 E10       30.16F
JOHNSTOWN      CLOUDY    48  42  80 SE7       30.12F
ALTOONA        CLOUDY    46  45  96 E6        30.16F FOG
STATE COLLEGE  CLOUDY    50  43  76 NE8       30.17F
WILLIAMSPORT   CLOUDY    51  41  68 CALM      30.20S
SELINSGROVE    CLOUDY    51  41  68 CALM      30.21F
FT INDIANTOWN  CLOUDY    53  43  69 VRB3      30.20F
CAPITAL CITY   CLOUDY    53  43  68 E3        30.21F
HARRISBURG     CLOUDY    52  44  74 SW3       30.20F
YORK           CLOUDY    49  44  83 NE3       30.20F
$$

PAZ038>040-043-044-047-048-054-055-060>062-067>071-301600-
EASTERN PENNSYLVANIA

CITY           SKY/WX    TMP DP  RH WIND       PRES   REMARKS
SCRANTON       CLOUDY    50  41  71 CALM      30.20S
MOUNT POCONO   CLOUDY    45  38  76 S5        30.17S
ALLENTOWN      CLOUDY    54  41  61 NE5       30.22R
QUAKERTOWN*    CLOUDY    52  41  66 CALM      30.22R
READING        PTSUNNY   55  41  59 VRB5      30.20S
LANCASTER      CLOUDY    52  43  71 SE5       30.21S
COATESVILLE    PTSUNNY   52  41  66 CALM      30.21F
POTTSTOWN      CLOUDY    52  40  63 E6        30.22S
BLUE BELL      CLOUDY    52  37  58 CALM      30.21S
DOYLESTOWN     PTSUNNY   51  40  65 VRB3      30.21R
WILLOW GROVE   NOT AVBL
NORTH PHILA    CLOUDY    55  42  61 VRB5      30.23S
PHILADELPHIA   PTSUNNY   56  41  57 E7        30.22S
$$




USA.gov is the U.S. government's official web portal to all federal, state and local government web resources and services.